Location: Esterri de Aneo
(42.6284°N, 1.1223°E)
Time: 15:49:25
(UTC+00:00)

USA 215 - Pass Details

Date: 11 December 2025
Orbit: 1098 x 1109 km, 123.0° (Epoch: 10 January)

Event Time Altitude Azimuth Distance (km) Brightness Sun altitude
Exits shadow 18:41:10 29° 25° (NNE) 1,920 4.2 -24.7°
Maximum altitude 18:41:49 29° 14° (NNE) 1,899 4.3 -24.8°
Drops below altitude 10° 18:47:15 10° 318° (NW) 2,963 5.9 -25.8°
Sets 18:50:03 0° 308° (NW) 3,920 6.8 -26.3°
